PKO YJUR-YPJT

Flight info

Callsign PKO
Flight time 0h 52m
Altitude 2000
Route BUVEL YCVS LANC TOS AKMW BUB OBC CYB CTE FRE POWR ADWD JT
Aircraft SR22/L-SDGRY/S

Departure

Time 2026-04-30 06:14
Airport Jurien Bay Airport (YJUR)

Arrival

Time 2026-04-30 07:06
Airport Perth Jandakot Airport (YPJT)
Time Latitude Longitude Altitude Speed Heading
2026-04-30 05:57 -30.30020 115.05566 17 ft 0 kts 108°
2026-04-30 06:10 -30.30021 115.05566 17 ft 0 kts 115°
2026-04-30 06:12 -30.30021 115.05572 17 ft 4 kts 90°
2026-04-30 06:12 -30.29965 115.05609 18 ft 14 kts 21°
2026-04-30 06:12 -30.29854 115.05658 18 ft 19 kts 22°
2026-04-30 06:12 -30.29729 115.05709 19 ft 14 kts 19°
2026-04-30 06:13 -30.29700 115.05740 18 ft 5 kts 105°
2026-04-30 06:13 -30.29722 115.05780 18 ft 2 kts 198°
2026-04-30 06:13 -30.29840 115.05731 18 ft 51 kts 200°
2026-04-30 06:13 -30.30330 115.05521 157 ft 85 kts 197°
2026-04-30 06:14 -30.30924 115.05286 326 ft 103 kts 195°
2026-04-30 06:14 -30.31618 115.04936 622 ft 109 kts 214°
2026-04-30 06:14 -30.32045 115.04245 1009 ft 109 kts 231°
2026-04-30 06:14 -30.32660 115.03774 1286 ft 110 kts 188°
2026-04-30 06:15 -30.33432 115.03812 1582 ft 113 kts 169°
2026-04-30 06:15 -30.34203 115.03992 1891 ft 114 kts 169°
2026-04-30 06:15 -30.35033 115.04184 1982 ft 130 kts 169°
2026-04-30 06:15 -30.35971 115.04401 1996 ft 142 kts 170°
2026-04-30 06:16 -30.36965 115.04593 1985 ft 147 kts 177°
2026-04-30 06:16 -30.37993 115.04701 1994 ft 149 kts 174°
2026-04-30 06:16 -30.39041 115.04818 1993 ft 151 kts 174°
2026-04-30 06:16 -30.40094 115.04934 1991 ft 152 kts 175°
2026-04-30 06:17 -30.41151 115.05051 2032 ft 149 kts 174°
2026-04-30 06:17 -30.42189 115.05135 2033 ft 150 kts 184°
2026-04-30 06:17 -30.43220 115.04919 2052 ft 150 kts 186°
2026-04-30 06:17 -30.44298 115.04928 1873 ft 161 kts 166°
2026-04-30 06:18 -30.45399 115.05305 1687 ft 167 kts 165°
2026-04-30 06:18 -30.46528 115.05706 1521 ft 169 kts 165°
2026-04-30 06:18 -30.47651 115.05995 1488 ft 162 kts 178°
2026-04-30 06:18 -30.48767 115.06040 1491 ft 157 kts 179°
2026-04-30 06:19 -30.49852 115.06184 1494 ft 156 kts 169°
2026-04-30 06:19 -30.50864 115.06651 1493 ft 156 kts 159°
2026-04-30 06:19 -30.51859 115.07163 1492 ft 156 kts 159°
2026-04-30 06:19 -30.52854 115.07678 1491 ft 156 kts 159°
2026-04-30 06:20 -30.53854 115.08171 1488 ft 155 kts 165°
2026-04-30 06:20 -30.54891 115.08505 1490 ft 154 kts 167°
2026-04-30 06:20 -30.55934 115.08830 1493 ft 154 kts 167°
2026-04-30 06:20 -30.56973 115.09153 1491 ft 154 kts 167°
2026-04-30 06:21 -30.58014 115.09475 1483 ft 154 kts 167°
2026-04-30 06:21 -30.59056 115.09800 1490 ft 154 kts 167°
2026-04-30 06:21 -30.60096 115.10126 1489 ft 153 kts 167°
2026-04-30 06:21 -30.61127 115.10452 1485 ft 151 kts 167°
2026-04-30 06:22 -30.62141 115.10773 1485 ft 150 kts 167°
2026-04-30 06:22 -30.63154 115.11094 1484 ft 149 kts 167°
2026-04-30 06:22 -30.64138 115.11489 1485 ft 151 kts 155°
2026-04-30 06:22 -30.65066 115.12084 1491 ft 151 kts 155°
2026-04-30 06:23 -30.65995 115.12656 1489 ft 150 kts 159°
2026-04-30 06:23 -30.66961 115.13128 1496 ft 149 kts 160°
2026-04-30 06:23 -30.67930 115.13600 1494 ft 149 kts 160°
2026-04-30 06:23 -30.68722 115.13985 1491 ft 149 kts 160°
2026-04-30 06:24 -30.69688 115.14453 1494 ft 149 kts 160°
2026-04-30 06:24 -30.70651 115.14919 1496 ft 149 kts 160°
2026-04-30 06:24 -30.71628 115.15349 1486 ft 148 kts 172°
2026-04-30 06:24 -30.72651 115.15384 1493 ft 147 kts 174°
2026-04-30 06:25 -30.73667 115.15614 1493 ft 147 kts 170°
2026-04-30 06:25 -30.74679 115.15862 1494 ft 148 kts 170°
2026-04-30 06:25 -30.75696 115.16118 1495 ft 148 kts 170°
2026-04-30 06:25 -30.76717 115.16379 1493 ft 149 kts 170°
2026-04-30 06:26 -30.77733 115.16641 1495 ft 149 kts 170°
2026-04-30 06:26 -30.78755 115.16904 1492 ft 149 kts 170°
2026-04-30 06:26 -30.79748 115.17270 1492 ft 150 kts 159°
2026-04-30 06:26 -30.80712 115.17778 1492 ft 151 kts 159°
2026-04-30 06:27 -30.81674 115.18289 1490 ft 151 kts 159°
2026-04-30 06:27 -30.82643 115.18801 1487 ft 152 kts 159°
2026-04-30 06:27 -30.83607 115.19309 1489 ft 151 kts 159°
2026-04-30 06:27 -30.84578 115.19818 1488 ft 151 kts 159°
2026-04-30 06:28 -30.85527 115.20366 1484 ft 153 kts 147°
2026-04-30 06:28 -30.86370 115.21134 1492 ft 153 kts 146°
2026-04-30 06:28 -30.87217 115.21902 1494 ft 153 kts 146°
2026-04-30 06:28 -30.88065 115.22664 1495 ft 152 kts 147°
2026-04-30 06:29 -30.88933 115.23377 1495 ft 152 kts 149°
2026-04-30 06:29 -30.89829 115.24036 1494 ft 151 kts 155°
2026-04-30 06:29 -30.90766 115.24605 1498 ft 151 kts 155°
2026-04-30 06:29 -30.91650 115.25288 1500 ft 153 kts 149°
2026-04-30 06:30 -30.92527 115.26008 1498 ft 153 kts 149°
2026-04-30 06:30 -30.93406 115.26728 1495 ft 154 kts 149°
2026-04-30 06:30 -30.94289 115.27449 1491 ft 154 kts 149°
2026-04-30 06:30 -30.95165 115.28178 1485 ft 154 kts 148°
2026-04-30 06:31 -30.96037 115.28918 1486 ft 154 kts 148°
2026-04-30 06:31 -30.96930 115.29610 1488 ft 152 kts 155°
2026-04-30 06:31 -30.97874 115.30182 1493 ft 152 kts 156°
2026-04-30 06:31 -30.98821 115.30755 1491 ft 152 kts 156°
2026-04-30 06:32 -30.99763 115.31328 1487 ft 152 kts 156°
2026-04-30 06:32 -31.00711 115.31904 1486 ft 152 kts 159°
2026-04-30 06:32 -31.01676 115.32406 1488 ft 152 kts 159°
2026-04-30 06:32 -31.02644 115.32923 1489 ft 152 kts 159°
2026-04-30 06:33 -31.03611 115.33440 1492 ft 152 kts 159°
2026-04-30 06:33 -31.04582 115.33957 1490 ft 152 kts 159°
2026-04-30 06:33 -31.05566 115.34435 1486 ft 151 kts 165°
2026-04-30 06:33 -31.06562 115.34864 1485 ft 151 kts 163°
2026-04-30 06:34 -31.07558 115.35299 1483 ft 152 kts 163°
2026-04-30 06:34 -31.08552 115.35730 1487 ft 152 kts 163°
2026-04-30 06:34 -31.09552 115.36161 1489 ft 152 kts 163°
2026-04-30 06:34 -31.10541 115.36584 1493 ft 151 kts 163°
2026-04-30 06:35 -31.11545 115.37007 1495 ft 151 kts 163°
2026-04-30 06:35 -31.12542 115.37428 1495 ft 151 kts 163°
2026-04-30 06:35 -31.13538 115.37851 1490 ft 151 kts 163°
2026-04-30 06:35 -31.14534 115.38276 1493 ft 151 kts 163°
2026-04-30 06:36 -31.15526 115.38704 1492 ft 151 kts 163°
2026-04-30 06:36 -31.16524 115.39134 1490 ft 151 kts 163°
2026-04-30 06:36 -31.17516 115.39565 1489 ft 151 kts 163°
2026-04-30 06:36 -31.18515 115.40001 1487 ft 152 kts 163°
2026-04-30 06:37 -31.19506 115.40434 1491 ft 152 kts 163°
2026-04-30 06:37 -31.20508 115.40873 1488 ft 152 kts 163°
2026-04-30 06:37 -31.21505 115.41308 1486 ft 153 kts 163°
2026-04-30 06:37 -31.22507 115.41748 1484 ft 153 kts 163°
2026-04-30 06:38 -31.23509 115.42186 1484 ft 153 kts 163°
2026-04-30 06:38 -31.24512 115.42625 1481 ft 152 kts 166°
2026-04-30 06:38 -31.25508 115.43068 1488 ft 153 kts 162°
2026-04-30 06:38 -31.26507 115.43529 1487 ft 153 kts 162°
2026-04-30 06:39 -31.27501 115.44006 1487 ft 154 kts 156°
2026-04-30 06:39 -31.28440 115.44631 1491 ft 155 kts 154°
2026-04-30 06:39 -31.29379 115.45267 1491 ft 155 kts 154°
2026-04-30 06:39 -31.30316 115.45906 1491 ft 155 kts 154°
2026-04-30 06:40 -31.31252 115.46546 1488 ft 155 kts 154°
2026-04-30 06:40 -31.32184 115.47181 1487 ft 155 kts 154°
2026-04-30 06:40 -31.33124 115.47816 1485 ft 155 kts 154°
2026-04-30 06:40 -31.34062 115.48449 1486 ft 155 kts 154°
2026-04-30 06:41 -31.35000 115.49084 1484 ft 155 kts 154°
2026-04-30 06:41 -31.35936 115.49720 1483 ft 155 kts 154°
2026-04-30 06:41 -31.36872 115.50356 1485 ft 154 kts 154°
2026-04-30 06:41 -31.37812 115.50993 1483 ft 154 kts 154°
2026-04-30 06:42 -31.38744 115.51627 1483 ft 154 kts 154°
2026-04-30 06:42 -31.39682 115.52265 1483 ft 154 kts 154°
2026-04-30 06:42 -31.40617 115.52899 1484 ft 154 kts 154°
2026-04-30 06:42 -31.41540 115.53573 1485 ft 154 kts 153°
2026-04-30 06:43 -31.42490 115.54159 1483 ft 153 kts 160°
2026-04-30 06:43 -31.43472 115.54672 1482 ft 153 kts 160°
2026-04-30 06:43 -31.44455 115.55182 1485 ft 154 kts 160°
2026-04-30 06:43 -31.45438 115.55695 1484 ft 154 kts 160°
2026-04-30 06:44 -31.46420 115.56208 1487 ft 153 kts 160°
2026-04-30 06:44 -31.47400 115.56721 1489 ft 153 kts 160°
2026-04-30 06:44 -31.48383 115.57236 1488 ft 153 kts 160°
2026-04-30 06:44 -31.49359 115.57749 1489 ft 153 kts 160°
2026-04-30 06:45 -31.50335 115.58260 1484 ft 153 kts 160°
2026-04-30 06:45 -31.51308 115.58770 1484 ft 153 kts 160°
2026-04-30 06:45 -31.52288 115.59282 1484 ft 153 kts 160°
2026-04-30 06:45 -31.53267 115.59791 1483 ft 153 kts 160°
2026-04-30 06:46 -31.54248 115.60303 1486 ft 153 kts 160°
2026-04-30 06:46 -31.55227 115.60812 1488 ft 154 kts 160°
2026-04-30 06:46 -31.56212 115.61325 1490 ft 154 kts 160°
2026-04-30 06:46 -31.57195 115.61840 1491 ft 154 kts 160°
2026-04-30 06:47 -31.58181 115.62358 1492 ft 155 kts 160°
2026-04-30 06:47 -31.59169 115.62878 1492 ft 155 kts 160°
2026-04-30 06:47 -31.60156 115.63395 1493 ft 155 kts 160°
2026-04-30 06:47 -31.61146 115.63915 1493 ft 155 kts 160°
2026-04-30 06:48 -31.62090 115.64534 1492 ft 157 kts 144°
2026-04-30 06:48 -31.62915 115.65398 1494 ft 158 kts 142°
2026-04-30 06:48 -31.63792 115.66153 1486 ft 153 kts 160°
2026-04-30 06:48 -31.64774 115.66658 1493 ft 153 kts 159°
2026-04-30 06:49 -31.65742 115.67195 1493 ft 154 kts 158°
2026-04-30 06:49 -31.66703 115.67763 1492 ft 154 kts 156°
2026-04-30 06:49 -31.67658 115.68356 1494 ft 155 kts 156°
2026-04-30 06:49 -31.68611 115.68958 1492 ft 155 kts 155°
2026-04-30 06:50 -31.69564 115.69567 1495 ft 155 kts 155°
2026-04-30 06:50 -31.70516 115.70176 1496 ft 155 kts 155°
2026-04-30 06:50 -31.71473 115.70791 1498 ft 156 kts 155°
2026-04-30 06:50 -31.72429 115.71403 1501 ft 156 kts 156°
2026-04-30 06:51 -31.73456 115.71768 1499 ft 153 kts 171°
2026-04-30 06:51 -31.74505 115.72033 1495 ft 153 kts 171°
2026-04-30 06:51 -31.75554 115.72284 1494 ft 153 kts 172°
2026-04-30 06:51 -31.76604 115.72530 1492 ft 152 kts 172°
2026-04-30 06:52 -31.77605 115.72762 1486 ft 141 kts 172°
2026-04-30 06:52 -31.78549 115.72979 1491 ft 134 kts 172°
2026-04-30 06:52 -31.78624 115.72997 1491 ft 134 kts 172°
2026-04-30 06:52 -31.79447 115.73186 1493 ft 130 kts 173°
2026-04-30 06:53 -31.80327 115.73388 1494 ft 127 kts 173°
2026-04-30 06:53 -31.81195 115.73588 1496 ft 125 kts 173°
2026-04-30 06:53 -31.82047 115.73783 1497 ft 124 kts 173°
2026-04-30 06:53 -31.82896 115.73978 1494 ft 123 kts 173°
2026-04-30 06:54 -31.83740 115.74172 1492 ft 122 kts 173°
2026-04-30 06:54 -31.84581 115.74366 1489 ft 122 kts 173°
2026-04-30 06:54 -31.85421 115.74560 1487 ft 122 kts 173°
2026-04-30 06:54 -31.86254 115.74751 1486 ft 121 kts 173°
2026-04-30 06:55 -31.87092 115.74944 1486 ft 121 kts 173°
2026-04-30 06:55 -31.87919 115.75135 1515 ft 118 kts 173°
2026-04-30 06:55 -31.88746 115.75325 1491 ft 121 kts 173°
2026-04-30 06:55 -31.89579 115.75437 1487 ft 119 kts 186°
2026-04-30 06:56 -31.90407 115.75377 1486 ft 118 kts 187°
2026-04-30 06:56 -31.91233 115.75302 1486 ft 118 kts 187°
2026-04-30 06:56 -31.92058 115.75220 1483 ft 118 kts 187°
2026-04-30 06:56 -31.92884 115.75135 1483 ft 118 kts 188°
2026-04-30 06:57 -31.93707 115.75049 1485 ft 118 kts 187°
2026-04-30 06:57 -31.94536 115.75013 1488 ft 118 kts 183°
2026-04-30 06:57 -31.95365 115.75007 1488 ft 119 kts 183°
2026-04-30 06:57 -31.96153 115.75004 1484 ft 119 kts 183°
2026-04-30 06:58 -31.96974 115.75003 1487 ft 119 kts 183°
2026-04-30 06:58 -31.97804 115.75002 1486 ft 119 kts 183°
2026-04-30 06:58 -31.98634 115.75001 1487 ft 119 kts 183°
2026-04-30 06:58 -31.99436 115.74951 1480 ft 111 kts 188°
2026-04-30 06:59 -32.00184 115.74866 1478 ft 104 kts 189°
2026-04-30 06:59 -32.00923 115.74777 1492 ft 112 kts 189°
2026-04-30 06:59 -32.01736 115.74677 1490 ft 120 kts 189°
2026-04-30 06:59 -32.02589 115.74572 1486 ft 125 kts 189°
2026-04-30 07:00 -32.03474 115.74462 1485 ft 129 kts 188°
2026-04-30 07:00 -32.04377 115.74350 1484 ft 131 kts 189°
2026-04-30 07:00 -32.05291 115.74236 1485 ft 132 kts 188°
2026-04-30 07:00 -32.06208 115.74395 1490 ft 135 kts 168°
2026-04-30 07:01 -32.07110 115.74722 1486 ft 134 kts 166°
2026-04-30 07:01 -32.07996 115.75066 1487 ft 133 kts 166°
2026-04-30 07:01 -32.08848 115.75484 1480 ft 135 kts 148°
2026-04-30 07:01 -32.09323 115.76448 1491 ft 142 kts 107°
2026-04-30 07:02 -32.09427 115.77599 1480 ft 138 kts 98°
2026-04-30 07:02 -32.09466 115.78687 1475 ft 128 kts 97°
2026-04-30 07:02 -32.09483 115.79707 1479 ft 121 kts 96°
2026-04-30 07:02 -32.09561 115.80667 1344 ft 124 kts 105°
2026-04-30 07:03 -32.09539 115.81711 1240 ft 128 kts 88°
2026-04-30 07:03 -32.09377 115.82747 1164 ft 127 kts 85°
2026-04-30 07:03 -32.09332 115.83758 1105 ft 119 kts 97°
2026-04-30 07:03 -32.09356 115.84714 1035 ft 115 kts 98°
2026-04-30 07:04 -32.09413 115.85644 964 ft 112 kts 101°
2026-04-30 07:04 -32.09481 115.86533 975 ft 104 kts 91°
2026-04-30 07:04 -32.09188 115.87285 990 ft 101 kts 47°
2026-04-30 07:04 -32.08677 115.87856 931 ft 102 kts 40°
2026-04-30 07:05 -32.07807 115.89016 719 ft 97 kts 103°
2026-04-30 07:05 -32.08169 115.89523 588 ft 77 kts 167°
2026-04-30 07:05 -32.08696 115.89531 397 ft 76 kts 208°
2026-04-30 07:06 -32.09017 115.89077 242 ft 70 kts 232°
2026-04-30 07:06 -32.09286 115.88633 141 ft 64 kts 232°
2026-04-30 07:06 -32.09524 115.88243 105 ft 50 kts 235°
2026-04-30 07:06 -32.09667 115.88008 104 ft 17 kts 256°
2026-04-30 07:07 -32.09636 115.87947 104 ft 6 kts 316°
2026-04-30 07:07 -32.09592 115.87909 104 ft 8 kts 327°
2026-04-30 07:07 -32.09537 115.87881 104 ft 7 kts
2026-04-30 07:07 -32.09526 115.87916 104 ft 3 kts 107°
2026-04-30 07:08 -32.09524 115.87935 104 ft 1 kts 46°
2026-04-30 07:22 -32.09524 115.87936 104 ft 0 kts 48°